User: anonymous
Location: Hepcat Sky Observatory
(29.9800°N, 95.6500°W)
Time: 10:52:16
(UTC-05:00)
Language:

Cosmos 1602 Rocket - Orbit

View from above orbital plane
View from above orbital plane
View from above satellite
View from above satellite

Ground track
Ground track

The orbit data is extracted from the following two-line orbital elements,

1 15332U 84105B   14204.33314832  .00000124  00000-0  12369-4 0  7024
2 15332 082.5350 098.4716 0019913 262.8201 235.6750 14.82744968609497
Epoch (UTC): 23 July 2014 07:59:44
Eccentricity: 0.0019913
inclination: 82.5350°
perigee height: 607 km
apogee height: 634 km
right ascension of ascending node: 98.4716°
argument of perigee: 262.8201°
revolutions per day: 14.82744968
mean anomaly at epoch: 235.6750°
orbit number at epoch: 60949

The dashed part of the orbit path shows where the satellite is in the earth's shadow,  

DLR